NOAA 16 DEB, 41378

Orbit data source: Space-Track

NOAA 16 DEB, 41378 is space debris in SSO originally from a launch on Thu, 21 Sep 2000 UTC launched from the Air Force Western Test Range (AFWTR). Debris objects in space refer to the collection of defunct objects orbiting the Earth. Examples of debris include non-operational satellites, rocket bodies, and fragments generated from explosions, collisions, or faulty payload assembly.

Loading next visibility...
Identifier
41378, 2000-055JX
Orbit
SSO
Country
Flag of USUS
Related business
Manufacturer
Unknown
Mission
Spacecraft
Bus & Motor
Unknown
Mass
Unknown
Launch date (UTC)
2000-09-21 (25 years ago)
Launch vehicle
Unknown
Launch site
Air Force Western Test Range (AFWTR)
Object type
Payload
Rocket body
Debris
Shape & HBR
Unknown shape, 0.1 m
Radar Cross Section
Small (<0.1 m²)

Expand to show TLE details & history
Last TLE update: 2 days ago

TLE from 2 days ago
0 NOAA 16 DEB
1 41378U 00055JX  25298.49772093  .00003875  00000-0  18983-2 0  9994
2 41378  98.6435 314.6288 0043031  95.7911 264.8173 14.17903563503069
Epoch: 2025-10-25T11:56Z
TLE epoch observation values (Epoch: 2025-10-25T11:56:43.088Z)
Latitude
0.00002°
Longitude
101.32185°
Altitude
838.301 km
Speed
7.432 km/s
True Right ascension
20h 58m 30s
True Declination
0° 00' 00"
Sunlit
Object was in daylight at epoch
Visualization orbit readout
Latitude
Unknown
Longitude
Unknown
Altitude
Unknown
Speed
Unknown
Apparent Right ascension
Unknown
Apparent Declination
Unknown
Sunlit
N/A
Visualization observer readout
Local Sidereal Time
22:02:14
Azimuth
Unknown
Elevation
Unknown
Doppler factor
Unknown
Orbital elements
Apogee altitude
860.625 km
Perigee altitude
798.594 km
Semi-major axis
7,207.747 km
Eccentricity
0.0043
Inclination
98.6435°
RAAN
314.6288°
Arg. of periapsis
95.7911°
True anomaly
264.32646°
Mean anomaly
264.8173°
Eccentric anomaly
264.57186°
Mean motion
3.54686 °/min
Orbital period
101.5 mins
BSTAR
0.0018983
Loading maneuver chart data...
Computing Atmospheric mass density...
Loading historical data...
Loading historical data...
Loading historical data...
Loading historical data...
Loading historical data...
Loading historical data...
Loading historical data...

Documentation

Showing up to 5 results
|